When you browse on this site, cookies collect data to enhance your experience and personalize the content and advertising you see.
Visit our Privacy Policy to learn more. By continuing to use the site, you agree to this use of cookies and data.
  • In United Kingdom
  • List of Countries
  • For 7 days
  • Water Temperature
  • Satellite Maps
  • Weather Map
  • Weather Widgets
  • user-avatar
    Login

    Hourly Weather El Quseir

    Today, 26 March, Tuesday

    Time Temperature Precipitation Wind Pressure Humidity
    00:00 +20°C° 0 mm 4 mps 757 mmHg 29%
    01:00 +19°C° 0 mm 4 mps 758 mmHg 31%
    02:00 +19°C° 0 mm 4 mps 757 mmHg 30%
    03:00 +18°C° 0 mm 4 mps 758 mmHg 32%
    04:00 +18°C° 0 mm 4 mps 758 mmHg 35%
    05:00 +17°C° 0 mm 4 mps 759 mmHg 37%
    06:00 +18°C° 0 mm 4 mps 759 mmHg 36%
    07:00 +19°C° 0 mm 3 mps 759 mmHg 34%
    08:00 +20°C° 0 mm 2 mps 760 mmHg 33%
    09:00 +21°C° 0 mm 2 mps 760 mmHg 29%
    10:00 +23°C° 0 mm 2 mps 760 mmHg 26%
    11:00 +24°C° 0 mm 1 mps 760 mmHg 23%
    12:00 +25°C° 0 mm 3 mps 760 mmHg 21%
    13:00 +26°C° 0 mm 4 mps 760 mmHg 20%
    14:00 +27°C° 0 mm 5 mps 760 mmHg 19%
    15:00 +27°C° 0 mm 5 mps 759 mmHg 21%
    16:00 +26°C° 0 mm 5 mps 759 mmHg 23%
    17:00 +26°C° 0 mm 5 mps 759 mmHg 25%
    18:00 +25°C° 0 mm 5 mps 760 mmHg 29%
    19:00 +25°C° 0 mm 4 mps 760 mmHg 33%
    20:00 +23°C° 0 mm 4 mps 761 mmHg 37%
    21:00 +22°C° 0 mm 3 mps 761 mmHg 38%
    22:00 +23°C° 0 mm 2 mps 761 mmHg 40%
    23:00 +21°C° 0 mm 2 mps 762 mmHg 41%

    Tomorrow, 27 March, Wednesday

    Time Temperature Precipitation Wind Pressure Humidity
    00:00 +21°C° 0 mm 2 mps 762 mmHg 42%
    01:00 +21°C° 0 mm 1 mps 762 mmHg 43%
    02:00 +21°C° 0 mm 1 mps 762 mmHg 45%
    03:00 +21°C° 0 mm 1 mps 762 mmHg 46%
    04:00 +20°C° 0 mm 1 mps 762 mmHg 47%
    05:00 +17°C° 0 mm 0 mps 762 mmHg 49%
    06:00 +21°C° 0 mm 1 mps 762 mmHg 44%
    07:00 +22°C° 0 mm 1 mps 763 mmHg 39%
    08:00 +23°C° 0 mm 1 mps 763 mmHg 35%
    09:00 +24°C° 0 mm 2 mps 763 mmHg 32%
    10:00 +25°C° 0 mm 3 mps 764 mmHg 29%
    11:00 +26°C° 0 mm 4 mps 764 mmHg 26%
    12:00 +27°C° 0 mm 4 mps 763 mmHg 26%
    13:00 +27°C° 0 mm 5 mps 763 mmHg 26%
    14:00 +27°C° 0 mm 6 mps 762 mmHg 26%
    15:00 +27°C° 0 mm 6 mps 762 mmHg 26%
    16:00 +26°C° 0 mm 5 mps 762 mmHg 27%
    17:00 +26°C° 0 mm 5 mps 762 mmHg 27%
    18:00 +25°C° 0 mm 5 mps 763 mmHg 31%
    19:00 +23°C° 0 mm 4 mps 763 mmHg 35%
    20:00 +24°C° 0 mm 3 mps 763 mmHg 38%
    21:00 +22°C° 0 mm 4 mps 763 mmHg 39%
    22:00 +22°C° 0 mm 4 mps 763 mmHg 39%
    23:00 +21°C° 0 mm 4 mps 764 mmHg 40%

    Day after tomorrow, 28 March, Thursday

    Time Temperature Precipitation Wind Pressure Humidity
    00:00 +21°C° 0 mm 4 mps 763 mmHg 39%
    01:00 +21°C° 0 mm 5 mps 763 mmHg 38%
    02:00 +20°C° 0 mm 5 mps 763 mmHg 37%
    03:00 +20°C° 0 mm 5 mps 763 mmHg 37%
    04:00 +20°C° 0 mm 5 mps 763 mmHg 38%
    05:00 +20°C° 0 mm 5 mps 763 mmHg 38%
    06:00 +21°C° 0 mm 5 mps 763 mmHg 35%
    07:00 +22°C° 0 mm 5 mps 763 mmHg 31%
    08:00 +23°C° 0 mm 5 mps 764 mmHg 28%
    09:00 +25°C° 0 mm 4 mps 764 mmHg 26%
    10:00 +26°C° 0 mm 4 mps 764 mmHg 24%
    11:00 +27°C° 0 mm 4 mps 763 mmHg 23%
    12:00 +27°C° 0 mm 3 mps 763 mmHg 23%
    13:00 +27°C° 0 mm 3 mps 762 mmHg 22%
    14:00 +28°C° 0 mm 3 mps 761 mmHg 22%
    15:00 +27°C° 0 mm 3 mps 761 mmHg 24%
    16:00 +27°C° 0 mm 2 mps 760 mmHg 26%
    17:00 +26°C° 0 mm 2 mps 760 mmHg 27%
    18:00 +25°C° 0 mm 2 mps 760 mmHg 29%
    19:00 +25°C° 0 mm 1 mps 760 mmHg 31%
    20:00 +24°C° 0 mm 1 mps 761 mmHg 33%
    21:00 +24°C° 0 mm 1 mps 761 mmHg 32%
    22:00 +24°C° 0 mm 1 mps 760 mmHg 31%
    23:00 +23°C° 0 mm 2 mps 760 mmHg 30%

    29 March, Friday

    Time Temperature Precipitation Wind Pressure Humidity
    00:00 +23°C° 0 mm 1 mps 760 mmHg 29%
    01:00 +22°C° 0 mm 1 mps 759 mmHg 29%
    02:00 +22°C° 0 mm 1 mps 759 mmHg 29%
    03:00 +22°C° 0 mm 1 mps 759 mmHg 29%
    04:00 +21°C° 0 mm 1 mps 758 mmHg 30%
    05:00 +21°C° 0 mm 1 mps 758 mmHg 31%
    06:00 +23°C° 0 mm 1 mps 758 mmHg 28%
    07:00 +24°C° 0 mm 1 mps 758 mmHg 25%
    08:00 +26°C° 0 mm 1 mps 759 mmHg 21%
    09:00 +28°C° 0 mm 2 mps 758 mmHg 19%
    10:00 +30°C° 0 mm 3 mps 758 mmHg 16%
    11:00 +33°C° 0 mm 4 mps 758 mmHg 13%
    12:00 +33°C° 0 mm 5 mps 757 mmHg 14%
    13:00 +34°C° 0 mm 6 mps 756 mmHg 14%
    14:00 +34°C° 0 mm 7 mps 755 mmHg 15%
    15:00 +34°C° 0 mm 6 mps 755 mmHg 16%
    16:00 +33°C° 0 mm 6 mps 755 mmHg 18%
    17:00 +32°C° 0 mm 6 mps 754 mmHg 19%
    18:00 +32°C° 0 mm 6 mps 754 mmHg 22%
    19:00 +30°C° 0 mm 6 mps 755 mmHg 24%
    20:00 +29°C° 0 mm 6 mps 755 mmHg 27%
    21:00 +29°C° 0 mm 6 mps 755 mmHg 26%
    22:00 +29°C° 0 mm 5 mps 754 mmHg 25%
    23:00 +29°C° 0 mm 5 mps 754 mmHg 24%

    30 March, Saturday

    Time Temperature Precipitation Wind Pressure Humidity
    00:00 +28°C° 0 mm 4 mps 754 mmHg 25%
    01:00 +28°C° 0 mm 3 mps 753 mmHg 25%
    02:00 +27°C° 0 mm 2 mps 753 mmHg 26%
    03:00 +27°C° 0 mm 4 mps 753 mmHg 33%
    04:00 +26°C° 0 mm 6 mps 754 mmHg 39%
    05:00 +26°C° 0 mm 9 mps 754 mmHg 45%
    06:00 +26°C° 0 mm 8 mps 755 mmHg 41%
    07:00 +26°C° 0 mm 7 mps 755 mmHg 36%
    08:00 +26°C° 0 mm 6 mps 756 mmHg 31%
    09:00 +27°C° 0 mm 5 mps 756 mmHg 27%
    10:00 +28°C° 0 mm 5 mps 756 mmHg 24%
    11:00 +29°C° 0 mm 5 mps 756 mmHg 20%
    12:00 +29°C° 0 mm 5 mps 755 mmHg 19%
    13:00 +29°C° 0 mm 5 mps 755 mmHg 19%
    14:00 +29°C° 0 mm 5 mps 754 mmHg 19%
    15:00 +29°C° 0 mm 4 mps 754 mmHg 18%
    16:00 +28°C° 0 mm 4 mps 754 mmHg 18%
    17:00 +27°C° 0 mm 4 mps 754 mmHg 18%
    18:00 +26°C° 0 mm 5 mps 755 mmHg 19%
    19:00 +24°C° 0 mm 6 mps 756 mmHg 20%
    20:00 +22°C° 0 mm 7 mps 756 mmHg 21%
    21:00 +21°C° 0 mm 7 mps 756 mmHg 23%
    22:00 +20°C° 0 mm 8 mps 757 mmHg 25%
    23:00 +20°C° 0 mm 8 mps 757 mmHg 27%

    31 March, Sunday

    Time Temperature Precipitation Wind Pressure Humidity
    00:00 +18°C° 0 mm 8 mps 757 mmHg 28%
    01:00 +17°C° 0 mm 7 mps 757 mmHg 29%
    02:00 +17°C° 0 mm 7 mps 757 mmHg 30%
    03:00 +16°C° 0 mm 7 mps 757 mmHg 31%
    04:00 +16°C° 0 mm 7 mps 757 mmHg 32%
    05:00 +15°C° 0 mm 6 mps 757 mmHg 33%
    06:00 +15°C° 0 mm 6 mps 758 mmHg 32%
    07:00 +16°C° 0 mm 6 mps 758 mmHg 30%
    08:00 +16°C° 0 mm 5 mps 759 mmHg 29%
    09:00 +17°C° 0 mm 5 mps 759 mmHg 25%
    10:00 +20°C° 0 mm 5 mps 759 mmHg 22%
    11:00 +21°C° 0 mm 4 mps 759 mmHg 19%
    12:00 +22°C° 0 mm 4 mps 758 mmHg 17%
    13:00 +22°C° 0 mm 3 mps 758 mmHg 16%
    14:00 +24°C° 0 mm 3 mps 757 mmHg 15%
    15:00 +24°C° 0 mm 3 mps 757 mmHg 16%
    16:00 +22°C° 0 mm 3 mps 757 mmHg 17%
    17:00 +22°C° 0 mm 3 mps 757 mmHg 18%
    18:00 +21°C° 0 mm 4 mps 758 mmHg 20%
    19:00 +20°C° 0 mm 5 mps 758 mmHg 22%
    20:00 +19°C° 0 mm 6 mps 759 mmHg 23%
    21:00 +19°C° 0 mm 6 mps 759 mmHg 24%
    22:00 +17°C° 0 mm 7 mps 759 mmHg 25%
    23:00 +17°C° 0 mm 7 mps 760 mmHg 25%
    Show more